Flag for Canada Weather past 2 weeks in Igloolik, Nunavut Territory, Canada

Now
50 °F

Partly sunny.


Feels Like: 44 °F
Forecast: 42 / 63 °F
Wind: 18 mph from North

Location: Hall Beach

Current Time: Jul 22, 2014 at 11:41:45 AM

Latest Report: Jul 22, 2014 at 11:00 AM


Visibility: 15 mi

Pressure: 29.75 "Hg

Humidity: 76%

Dew point: 43 °F

Location of IgloolikLocation

Historic Weather in Igloolik — Graph

°F

Igloolik temperature yesterday

Maximum temperature yesterday: 54 °F (at 11:00 AM)
Minimum temperature yesterday: 43 °F (at 2:00 AM)
Average temperature yesterday: 47 °F

Past Weeks' High & Low Weather Summary

 TemperatureHumidityPressure
High61 °F (Jul 14, 1:00 PM)100% (Jul 16, 9:45 AM)30.23 "Hg (Jul 16, 9:45 AM)
Low36 °F (Jul 17, 4:00 AM)39% (Jul 13, 7:00 PM)29.26 "Hg (Jul 18, 1:58 AM)
Average45 °F84%29.76 "Hg
* Reported Jul 7 10:00 AM — Jul 22 10:00 AM, Igloolik, Weather by CustomWeather, © 2014

Note: Actual official high and low records may vary slightly from our data, if they occured in-between our weather recording intervals... More about our weather records

Advertising

Igloolik weather history for previous 24 hours

 ConditionsComfort  
Time TempWeatherWind HumidityBarometerVisibility
10:00 AM
Jul 22
48 °FPartly sunny.14 mph76%29.75 "Hg15 mi
9:00 AM46 °FPartly sunny.15 mph87%29.75 "Hg15 mi
8:00 AM45 °FPartly sunny.16 mph87%29.75 "Hg15 mi
7:00 AM45 °FOvercast.14 mph87%29.75 "Hg9 mi
6:00 AM45 °FOvercast.14 mph87%29.74 "Hg9 mi
5:00 AM41 °FOvercast.13 mph93%29.73 "Hg9 mi
4:00 AM39 °FSunny.12 mph100%29.72 "Hg9 mi
3:00 AM39 °FSunny.9 mph93%29.72 "Hg9 mi
2:00 AM41 °FPassing clouds.6 mph93%29.72 "Hg9 mi
1:00 AM43 °FScattered clouds.10 mph87%29.72 "Hg9 mi
12:00 AM45 °FOvercast.14 mph87%29.72 "Hg9 mi
11:00 PM
Jul 21
46 °FOvercast.14 mph82%29.71 "Hg9 mi
10:00 PM45 °FMostly cloudy.2 mph87%29.71 "Hg9 mi
9:00 PM48 °FPartly sunny.3 mph76%29.70 "Hg9 mi
8:00 PM48 °FPartly sunny.3 mph76%29.70 "Hg15 mi
7:00 PM46 °FScattered showers. Broken clouds.3 mph82%29.70 "Hg15 mi
6:00 PM46 °FSprinkles. Partly sunny.5 mph87%29.70 "Hg15 mi
5:00 PM48 °FSprinkles. Partly sunny.6 mph82%29.69 "Hg10 mi
4:00 PM48 °FPartly sunny.6 mph82%29.68 "Hg15 mi
3:00 PM48 °FSprinkles. Partly sunny.7 mph82%29.67 "Hg12 mi
2:00 PM52 °FSprinkles. Partly sunny.7 mph77%29.66 "Hg15 mi
1:00 PM54 °FPartly sunny.7 mph63%29.65 "Hg15 mi
12:00 PM54 °FBroken clouds.8 mph67%29.64 "Hg15 mi
11:00 AM54 °FPartly sunny.12 mph67%29.64 "Hg15 mi
Weather by CustomWeather, © 2014

See weather overviewHow to use our weather pages